DLH7769 EDDF-LEBL

Flight info

Callsign DLH7769
Flight time 1h 43m
Altitude 35000
Route ANEKI2L/18 ANEKI Y163 HERBI Y164 MOPAN DCT LUTIX/N0445F370 DCT BENOT DCT NEMOS DCT GEVEA/N0398F270 DCT INCUS DCT BALSI/N0440F350 DCT RETNO DCT TUPOX DCT MTG DCT DIVKO/N0447F370 DCT NILDU DCT BISBA
Aircraft A320/M-SDE3FGHIRWY/LB1

Departure

Time 2026-05-07 19:24
Airport Frankfurt Main Airport (EDDF)

Arrival

Time 2026-05-07 21:08
Airport Josep Tarradellas Barcelona-El Prat Airport (LEBL)
Time Latitude Longitude Altitude Speed Heading
2026-05-07 18:54 50.04799 8.56926 346 ft 0 kts 295°
2026-05-07 19:09 50.04797 8.56930 345 ft 4 kts 283°
2026-05-07 19:10 50.04794 8.56953 358 ft 4 kts 288°
2026-05-07 19:10 50.04784 8.56992 352 ft 4 kts 292°
2026-05-07 19:10 50.04777 8.57019 347 ft 4 kts 223°
2026-05-07 19:10 50.04779 8.57022 347 ft 0 kts 202°
2026-05-07 19:13 50.04774 8.57020 345 ft 4 kts 202°
2026-05-07 19:14 50.04734 8.56993 354 ft 6 kts 203°
2026-05-07 19:14 50.04697 8.56967 347 ft 6 kts 205°
2026-05-07 19:14 50.04638 8.56925 352 ft 9 kts 201°
2026-05-07 19:14 50.04578 8.56900 345 ft 9 kts 193°
2026-05-07 19:15 50.04511 8.56876 345 ft 10 kts 192°
2026-05-07 19:15 50.04432 8.56852 345 ft 13 kts 189°
2026-05-07 19:15 50.04345 8.56828 345 ft 12 kts 190°
2026-05-07 19:15 50.04270 8.56802 345 ft 10 kts 205°
2026-05-07 19:16 50.04233 8.56720 352 ft 9 kts 248°
2026-05-07 19:16 50.04213 8.56639 349 ft 7 kts 249°
2026-05-07 19:16 50.04197 8.56572 351 ft 8 kts 250°
2026-05-07 19:16 50.04173 8.56469 348 ft 13 kts 250°
2026-05-07 19:17 50.04136 8.56312 348 ft 17 kts 249°
2026-05-07 19:17 50.04097 8.56148 347 ft 15 kts 249°
2026-05-07 19:17 50.04062 8.56003 349 ft 13 kts 249°
2026-05-07 19:17 50.04031 8.55875 351 ft 12 kts 249°
2026-05-07 19:18 50.04004 8.55763 352 ft 11 kts 250°
2026-05-07 19:18 50.03972 8.55625 350 ft 17 kts 250°
2026-05-07 19:18 50.03929 8.55444 349 ft 19 kts 249°
2026-05-07 19:18 50.03880 8.55242 352 ft 21 kts 250°
2026-05-07 19:19 50.03826 8.55016 352 ft 22 kts 249°
2026-05-07 19:19 50.03779 8.54821 355 ft 18 kts 250°
2026-05-07 19:19 50.03738 8.54649 349 ft 16 kts 249°
2026-05-07 19:19 50.03700 8.54497 352 ft 14 kts 250°
2026-05-07 19:20 50.03669 8.54361 350 ft 13 kts 250°
2026-05-07 19:20 50.03641 8.54241 348 ft 11 kts 250°
2026-05-07 19:20 50.03618 8.54141 350 ft 10 kts 250°
2026-05-07 19:20 50.03592 8.54034 353 ft 14 kts 249°
2026-05-07 19:21 50.03550 8.53858 345 ft 20 kts 251°
2026-05-07 19:21 50.03502 8.53656 352 ft 19 kts 249°
2026-05-07 19:21 50.03457 8.53470 352 ft 17 kts 249°
2026-05-07 19:21 50.03427 8.53347 350 ft 10 kts 249°
2026-05-07 19:22 50.03405 8.53254 355 ft 9 kts 249°
2026-05-07 19:22 50.03383 8.53166 349 ft 11 kts 250°
2026-05-07 19:22 50.03351 8.53029 349 ft 16 kts 250°
2026-05-07 19:22 50.03315 8.52878 350 ft 14 kts 250°
2026-05-07 19:23 50.03281 8.52727 350 ft 15 kts 250°
2026-05-07 19:23 50.03222 8.52613 350 ft 14 kts 207°
2026-05-07 19:23 50.03123 8.52594 350 ft 17 kts 180°
2026-05-07 19:23 50.02827 8.52596 346 ft 78 kts 179°
2026-05-07 19:24 50.02076 8.52607 355 ft 135 kts 179°
2026-05-07 19:24 50.00976 8.52630 360 ft 178 kts 178°
2026-05-07 19:24 49.99706 8.52634 874 ft 184 kts 180°
2026-05-07 19:24 49.98430 8.52675 1542 ft 184 kts 176°
2026-05-07 19:25 49.97097 8.52783 1916 ft 203 kts 175°
2026-05-07 19:25 49.95606 8.52915 2196 ft 226 kts 176°
2026-05-07 19:25 49.94010 8.53046 2924 ft 232 kts 176°
2026-05-07 19:25 49.92381 8.53167 3683 ft 238 kts 177°
2026-05-07 19:26 49.90714 8.53285 4111 ft 241 kts 178°
2026-05-07 19:26 49.89043 8.53401 4998 ft 241 kts 178°
2026-05-07 19:26 49.87369 8.53519 5818 ft 242 kts 178°
2026-05-07 19:26 49.85676 8.53636 6648 ft 244 kts 179°
2026-05-07 19:27 49.83978 8.53754 7425 ft 246 kts 179°
2026-05-07 19:27 49.82280 8.53872 8188 ft 248 kts 179°
2026-05-07 19:27 49.80542 8.53990 8968 ft 251 kts 179°
2026-05-07 19:27 49.78785 8.54107 9767 ft 254 kts 179°
2026-05-07 19:28 49.76998 8.54008 10321 ft 266 kts 186°
2026-05-07 19:28 49.75077 8.53751 10572 ft 289 kts 186°
2026-05-07 19:28 49.72986 8.53461 10792 ft 313 kts 186°
2026-05-07 19:28 49.70742 8.53154 11097 ft 332 kts 186°
2026-05-07 19:29 49.68420 8.52845 11726 ft 338 kts 186°
2026-05-07 19:29 49.66069 8.52537 12437 ft 342 kts 186°
2026-05-07 19:29 49.63683 8.52226 13157 ft 345 kts 186°
2026-05-07 19:29 49.61282 8.51913 13879 ft 348 kts 186°
2026-05-07 19:30 49.58851 8.51593 14498 ft 351 kts 186°
2026-05-07 19:30 49.56415 8.51272 15119 ft 354 kts 186°
2026-05-07 19:30 49.53953 8.50949 15736 ft 357 kts 186°
2026-05-07 19:30 49.51469 8.50624 16354 ft 360 kts 186°
2026-05-07 19:31 49.48956 8.50296 16970 ft 363 kts 186°
2026-05-07 19:31 49.46435 8.49967 17573 ft 366 kts 187°
2026-05-07 19:31 49.43875 8.49632 18176 ft 370 kts 187°
2026-05-07 19:31 49.41302 8.49294 18697 ft 373 kts 187°
2026-05-07 19:32 49.38711 8.48956 19219 ft 375 kts 187°
2026-05-07 19:32 49.36096 8.48615 19719 ft 378 kts 187°
2026-05-07 19:32 49.33465 8.48271 20231 ft 381 kts 187°
2026-05-07 19:32 49.30810 8.47923 20710 ft 384 kts 187°
2026-05-07 19:33 49.28147 8.47574 21204 ft 387 kts 187°
2026-05-07 19:33 49.25454 8.47224 21680 ft 390 kts 187°
2026-05-07 19:33 49.22740 8.46873 22156 ft 392 kts 187°
2026-05-07 19:33 49.20044 8.46523 22603 ft 395 kts 187°
2026-05-07 19:34 49.17258 8.46160 23084 ft 398 kts 187°
2026-05-07 19:34 49.14531 8.45808 23531 ft 401 kts 187°
2026-05-07 19:34 49.11743 8.45450 23913 ft 403 kts 187°
2026-05-07 19:34 49.08941 8.45089 24288 ft 406 kts 187°
2026-05-07 19:35 49.06124 8.44637 24652 ft 407 kts 192°
2026-05-07 19:35 49.03322 8.43706 25011 ft 408 kts 195°
2026-05-07 19:35 49.00547 8.42732 25387 ft 411 kts 195°
2026-05-07 19:35 48.97793 8.41769 25745 ft 413 kts 195°
2026-05-07 19:36 48.94982 8.40787 26099 ft 415 kts 195°
2026-05-07 19:36 48.92149 8.39798 26464 ft 417 kts 195°
2026-05-07 19:36 48.89300 8.38809 26823 ft 419 kts 195°
2026-05-07 19:36 48.86484 8.37833 27166 ft 421 kts 195°
2026-05-07 19:37 48.83619 8.36842 27508 ft 424 kts 195°
2026-05-07 19:37 48.80733 8.35844 27853 ft 426 kts 195°
2026-05-07 19:37 48.77845 8.34844 28194 ft 428 kts 195°
2026-05-07 19:37 48.74931 8.33807 28536 ft 429 kts 196°
2026-05-07 19:38 48.72021 8.32746 28882 ft 431 kts 196°
2026-05-07 19:38 48.69107 8.31671 29204 ft 433 kts 196°
2026-05-07 19:38 48.66166 8.30583 29521 ft 435 kts 196°
2026-05-07 19:38 48.63221 8.29496 29826 ft 437 kts 196°
2026-05-07 19:39 48.60252 8.28407 30112 ft 439 kts 196°
2026-05-07 19:39 48.57272 8.27321 30368 ft 441 kts 196°
2026-05-07 19:39 48.54290 8.26240 30616 ft 443 kts 196°
2026-05-07 19:39 48.51282 8.25154 30860 ft 444 kts 196°
2026-05-07 19:40 48.48274 8.24069 31109 ft 446 kts 196°
2026-05-07 19:40 48.45259 8.22976 31421 ft 445 kts 196°
2026-05-07 19:40 48.43271 8.22251 31651 ft 444 kts 196°
2026-05-07 19:40 48.39259 8.20782 32140 ft 442 kts 197°
2026-05-07 19:41 48.36275 8.19691 32490 ft 441 kts 197°
2026-05-07 19:41 48.33337 8.18619 32823 ft 440 kts 197°
2026-05-07 19:41 48.30365 8.17535 33179 ft 438 kts 197°
2026-05-07 19:41 48.27412 8.16462 33528 ft 437 kts 197°
2026-05-07 19:42 48.24504 8.15199 33878 ft 433 kts 204°
2026-05-07 19:42 48.21776 8.13352 34190 ft 430 kts 210°
2026-05-07 19:42 48.19099 8.11355 34465 ft 429 kts 210°
2026-05-07 19:42 48.16417 8.09367 34735 ft 429 kts 209°
2026-05-07 19:43 48.13747 8.07396 34956 ft 429 kts 209°
2026-05-07 19:43 48.11075 8.05428 35054 ft 426 kts 210°
2026-05-07 19:43 48.05784 8.01535 35072 ft 422 kts 210°
2026-05-07 19:44 48.00526 7.97662 35070 ft 421 kts 210°
2026-05-07 19:44 47.95276 7.93795 35071 ft 421 kts 209°
2026-05-07 19:45 47.90020 7.89952 35071 ft 420 kts 209°
2026-05-07 19:45 47.84772 7.86132 35069 ft 420 kts 209°
2026-05-07 19:46 47.79530 7.82316 35064 ft 420 kts 209°
2026-05-07 19:46 47.74286 7.78505 35045 ft 419 kts 209°
2026-05-07 19:47 47.69039 7.74699 35049 ft 419 kts 209°
2026-05-07 19:47 47.63804 7.70899 35051 ft 419 kts 209°
2026-05-07 19:48 47.58598 7.67138 35055 ft 419 kts 209°
2026-05-07 19:48 47.53324 7.63348 35036 ft 419 kts 210°
2026-05-07 19:49 47.48089 7.59595 35043 ft 418 kts 210°
2026-05-07 19:49 47.42893 7.55874 35061 ft 418 kts 210°
2026-05-07 19:50 47.37662 7.52121 35055 ft 417 kts 210°
2026-05-07 19:50 47.32443 7.48392 35030 ft 417 kts 210°
2026-05-07 19:51 47.27226 7.44681 35035 ft 416 kts 210°
2026-05-07 19:51 47.22017 7.40992 35039 ft 415 kts 210°
2026-05-07 19:52 47.17016 7.36863 35036 ft 408 kts 222°
2026-05-07 19:52 47.13165 7.30888 35029 ft 402 kts 234°
2026-05-07 19:53 47.09687 7.24454 35041 ft 402 kts 234°
2026-05-07 19:53 47.06191 7.18043 35040 ft 402 kts 233°
2026-05-07 19:54 47.02699 7.11647 35050 ft 402 kts 233°
2026-05-07 19:54 46.99231 7.05305 35032 ft 402 kts 233°
2026-05-07 19:55 46.95734 6.98926 35003 ft 402 kts 233°
2026-05-07 19:55 46.92204 6.92512 35008 ft 402 kts 232°
2026-05-07 19:56 46.88118 6.86962 35006 ft 406 kts 222°
2026-05-07 19:56 46.83734 6.81751 35012 ft 406 kts 222°
2026-05-07 19:57 46.80062 6.77385 35016 ft 407 kts 222°
2026-05-07 19:57 46.74959 6.71315 34999 ft 407 kts 221°
2026-05-07 19:58 46.71278 6.66956 35006 ft 407 kts 221°
2026-05-07 19:58 46.66880 6.61752 35016 ft 407 kts 221°
2026-05-07 19:59 46.62477 6.56563 35022 ft 407 kts 221°
2026-05-07 19:59 46.58101 6.51415 35021 ft 407 kts 221°
2026-05-07 20:00 46.53691 6.46232 35020 ft 408 kts 221°
2026-05-07 20:00 46.49277 6.41057 35030 ft 408 kts 221°
2026-05-07 20:01 46.44866 6.35885 35020 ft 408 kts 221°
2026-05-07 20:01 46.40443 6.30725 35018 ft 408 kts 221°
2026-05-07 20:02 46.36018 6.25575 35009 ft 408 kts 221°
2026-05-07 20:02 46.31588 6.20429 35015 ft 408 kts 221°
2026-05-07 20:03 46.27090 6.15433 35017 ft 410 kts 213°
2026-05-07 20:03 46.21759 6.12424 35016 ft 418 kts 194°
2026-05-07 20:04 46.16037 6.11155 35013 ft 419 kts 192°
2026-05-07 20:04 46.10278 6.09872 35014 ft 419 kts 193°
2026-05-07 20:05 46.04522 6.08588 34992 ft 419 kts 193°
2026-05-07 20:05 45.98766 6.07313 34976 ft 418 kts 192°
2026-05-07 20:06 45.93017 6.06051 34991 ft 417 kts 192°
2026-05-07 20:06 45.87279 6.04794 35023 ft 417 kts 193°
2026-05-07 20:07 45.81551 6.03521 35020 ft 416 kts 193°
2026-05-07 20:07 45.75833 6.02250 35010 ft 416 kts 193°
2026-05-07 20:08 45.70114 6.00990 34998 ft 415 kts 193°
2026-05-07 20:08 45.64401 5.99740 34998 ft 415 kts 193°
2026-05-07 20:09 45.58702 5.98480 34991 ft 415 kts 193°
2026-05-07 20:10 45.50151 5.96607 34992 ft 414 kts 193°
2026-05-07 20:10 45.44477 5.95228 34994 ft 412 kts 195°
2026-05-07 20:11 45.38893 5.93448 34986 ft 411 kts 198°
2026-05-07 20:11 45.33366 5.91604 34999 ft 411 kts 197°
2026-05-07 20:12 45.27793 5.89824 35001 ft 411 kts 197°
2026-05-07 20:12 45.22209 5.88096 35001 ft 411 kts 197°
2026-05-07 20:13 45.16633 5.86377 35010 ft 410 kts 197°
2026-05-07 20:13 45.11029 5.84653 35019 ft 409 kts 197°
2026-05-07 20:14 45.05509 5.82947 35014 ft 409 kts 197°
2026-05-07 20:14 44.99965 5.81234 35032 ft 407 kts 198°
2026-05-07 20:15 44.94432 5.79528 35043 ft 405 kts 198°
2026-05-07 20:15 44.88932 5.77844 35042 ft 404 kts 198°
2026-05-07 20:16 44.83444 5.76171 35029 ft 403 kts 198°
2026-05-07 20:16 44.77986 5.74507 35043 ft 401 kts 199°
2026-05-07 20:17 44.72548 5.72841 35044 ft 399 kts 199°
2026-05-07 20:17 44.67135 5.71177 35040 ft 398 kts 199°
2026-05-07 20:18 44.61722 5.69532 35041 ft 397 kts 198°
2026-05-07 20:18 44.56322 5.67895 35035 ft 397 kts 198°
2026-05-07 20:19 44.50927 5.66259 35030 ft 397 kts 198°
2026-05-07 20:19 44.45530 5.64628 35017 ft 396 kts 198°
2026-05-07 20:20 44.40154 5.63005 35018 ft 395 kts 198°
2026-05-07 20:20 44.34976 5.60702 35018 ft 389 kts 207°
2026-05-07 20:21 44.29946 5.57931 35012 ft 388 kts 206°
2026-05-07 20:21 44.24915 5.55174 35003 ft 389 kts 206°
2026-05-07 20:22 44.19876 5.52427 35007 ft 388 kts 206°
2026-05-07 20:22 44.14873 5.49708 35009 ft 388 kts 206°
2026-05-07 20:23 44.09814 5.46948 35003 ft 388 kts 206°
2026-05-07 20:23 44.04815 5.44220 34994 ft 389 kts 206°
2026-05-07 20:24 43.99771 5.41492 34994 ft 389 kts 206°
2026-05-07 20:24 43.94731 5.38765 34996 ft 389 kts 206°
2026-05-07 20:25 43.89682 5.36033 34978 ft 389 kts 206°
2026-05-07 20:25 43.84630 5.33305 34980 ft 390 kts 206°
2026-05-07 20:26 43.79563 5.30578 34998 ft 390 kts 206°
2026-05-07 20:26 43.74509 5.27855 35002 ft 390 kts 206°
2026-05-07 20:27 43.69456 5.25134 34986 ft 390 kts 205°
2026-05-07 20:27 43.64403 5.22428 34987 ft 390 kts 205°
2026-05-07 20:28 43.59340 5.19721 34988 ft 390 kts 205°
2026-05-07 20:28 43.54266 5.17014 34989 ft 391 kts 205°
2026-05-07 20:29 43.49205 5.14316 34982 ft 391 kts 205°
2026-05-07 20:29 43.44118 5.11613 34855 ft 393 kts 205°
2026-05-07 20:29 43.41575 5.10261 34662 ft 391 kts 205°
2026-05-07 20:30 43.39073 5.08840 34473 ft 387 kts 210°
2026-05-07 20:30 43.36814 5.06985 34271 ft 381 kts 217°
2026-05-07 20:30 43.34640 5.04913 34088 ft 379 kts 217°
2026-05-07 20:30 43.32473 5.02862 33886 ft 377 kts 217°
2026-05-07 20:31 43.30313 5.00825 33669 ft 376 kts 217°
2026-05-07 20:31 43.28163 4.98801 33424 ft 375 kts 217°
2026-05-07 20:31 43.26012 4.96781 33217 ft 374 kts 216°
2026-05-07 20:31 43.23866 4.94767 33027 ft 373 kts 216°
2026-05-07 20:32 43.21726 4.92761 32808 ft 371 kts 216°
2026-05-07 20:32 43.19602 4.90772 32592 ft 369 kts 216°
2026-05-07 20:32 43.17701 4.88993 32400 ft 368 kts 216°
2026-05-07 20:32 43.15762 4.87182 32210 ft 367 kts 216°
2026-05-07 20:33 43.13654 4.85214 32000 ft 366 kts 216°
2026-05-07 20:33 43.11548 4.83244 31782 ft 366 kts 216°
2026-05-07 20:33 43.09443 4.81277 31576 ft 367 kts 216°
2026-05-07 20:33 43.07579 4.79536 31398 ft 367 kts 216°
2026-05-07 20:34 43.05498 4.77528 31197 ft 366 kts 219°
2026-05-07 20:34 43.03580 4.75244 30992 ft 365 kts 222°
2026-05-07 20:34 43.01681 4.72934 30795 ft 365 kts 222°
2026-05-07 20:34 42.99785 4.70634 30601 ft 364 kts 221°
2026-05-07 20:35 42.97886 4.68337 30416 ft 364 kts 221°
2026-05-07 20:35 42.95995 4.66054 30203 ft 364 kts 221°
2026-05-07 20:35 42.94098 4.63765 30009 ft 363 kts 221°
2026-05-07 20:35 42.92206 4.61480 29771 ft 363 kts 221°
2026-05-07 20:36 42.90344 4.59233 29546 ft 362 kts 221°
2026-05-07 20:36 42.88463 4.56966 29335 ft 361 kts 221°
2026-05-07 20:36 42.86563 4.54679 29104 ft 358 kts 221°
2026-05-07 20:36 42.84727 4.52469 28889 ft 357 kts 221°
2026-05-07 20:37 42.82870 4.50239 28673 ft 355 kts 221°
2026-05-07 20:37 42.80989 4.47991 28449 ft 354 kts 221°
2026-05-07 20:37 42.79166 4.45818 28239 ft 353 kts 221°
2026-05-07 20:37 42.77322 4.43615 28018 ft 352 kts 221°
2026-05-07 20:38 42.75486 4.41413 27803 ft 351 kts 221°
2026-05-07 20:38 42.73654 4.39211 27591 ft 350 kts 221°
2026-05-07 20:38 42.71831 4.37023 27388 ft 350 kts 221°
2026-05-07 20:38 42.70008 4.34842 27173 ft 349 kts 221°
2026-05-07 20:39 42.68188 4.32670 26964 ft 348 kts 221°
2026-05-07 20:39 42.66371 4.30503 26758 ft 347 kts 221°
2026-05-07 20:39 42.64560 4.28348 26544 ft 346 kts 221°
2026-05-07 20:39 42.62753 4.26198 26348 ft 345 kts 221°
2026-05-07 20:40 42.60945 4.24054 26151 ft 344 kts 221°
2026-05-07 20:40 42.59145 4.21922 25957 ft 343 kts 221°
2026-05-07 20:40 42.57342 4.19789 25745 ft 343 kts 221°
2026-05-07 20:40 42.55549 4.17664 25568 ft 342 kts 221°
2026-05-07 20:41 42.53761 4.15542 25375 ft 342 kts 221°
2026-05-07 20:41 42.51969 4.13415 25176 ft 342 kts 221°
2026-05-07 20:41 42.50181 4.11297 24977 ft 341 kts 221°
2026-05-07 20:41 42.48395 4.09185 24785 ft 341 kts 221°
2026-05-07 20:42 42.46612 4.07077 24593 ft 340 kts 221°
2026-05-07 20:42 42.44831 4.04972 24404 ft 339 kts 221°
2026-05-07 20:42 42.43055 4.02876 24220 ft 339 kts 221°
2026-05-07 20:42 42.41281 4.00785 24035 ft 338 kts 221°
2026-05-07 20:43 42.39510 3.98699 23849 ft 337 kts 221°
2026-05-07 20:43 42.37772 3.96653 23665 ft 337 kts 221°
2026-05-07 20:43 42.36008 3.94577 23461 ft 336 kts 221°
2026-05-07 20:43 42.34244 3.92505 23254 ft 336 kts 221°
2026-05-07 20:44 42.32475 3.90431 23011 ft 337 kts 221°
2026-05-07 20:44 42.30700 3.88350 22794 ft 338 kts 221°
2026-05-07 20:44 42.28926 3.86273 22578 ft 338 kts 221°
2026-05-07 20:44 42.27148 3.84192 22388 ft 338 kts 221°
2026-05-07 20:45 42.25373 3.82114 22201 ft 338 kts 221°
2026-05-07 20:45 42.23601 3.80037 22032 ft 338 kts 221°
2026-05-07 20:45 42.21850 3.77990 21846 ft 337 kts 221°
2026-05-07 20:45 42.20057 3.75898 21660 ft 337 kts 221°
2026-05-07 20:46 42.18311 3.73861 21476 ft 336 kts 221°
2026-05-07 20:46 42.16540 3.71794 21295 ft 336 kts 221°
2026-05-07 20:46 42.14773 3.69734 21115 ft 336 kts 221°
2026-05-07 20:46 42.13005 3.67676 20937 ft 336 kts 221°
2026-05-07 20:47 42.11241 3.65622 20760 ft 336 kts 221°
2026-05-07 20:47 42.09474 3.63568 20582 ft 336 kts 221°
2026-05-07 20:47 42.08307 3.62137 20461 ft 335 kts 226°
2026-05-07 20:47 42.06173 3.59131 20232 ft 335 kts 226°
2026-05-07 20:48 42.05084 3.57604 20115 ft 335 kts 226°
2026-05-07 20:48 42.03494 3.55380 19949 ft 335 kts 226°
2026-05-07 20:48 42.01877 3.53125 19777 ft 335 kts 226°
2026-05-07 20:48 42.00233 3.50837 19602 ft 335 kts 226°
2026-05-07 20:49 41.98640 3.48621 19426 ft 335 kts 226°
2026-05-07 20:49 41.97019 3.46367 19268 ft 335 kts 226°
2026-05-07 20:49 41.95403 3.44120 19098 ft 334 kts 226°
2026-05-07 20:49 41.93789 3.41876 18934 ft 334 kts 226°
2026-05-07 20:50 41.92176 3.39636 18764 ft 332 kts 226°
2026-05-07 20:50 41.90578 3.37415 18601 ft 330 kts 226°
2026-05-07 20:50 41.88985 3.35207 18434 ft 329 kts 226°
2026-05-07 20:50 41.87391 3.32999 18271 ft 329 kts 226°
2026-05-07 20:51 41.85794 3.30790 18077 ft 329 kts 226°
2026-05-07 20:51 41.84207 3.28593 17894 ft 328 kts 226°
2026-05-07 20:51 41.82620 3.26395 17706 ft 328 kts 226°
2026-05-07 20:51 41.81038 3.24205 17523 ft 327 kts 226°
2026-05-07 20:52 41.79455 3.22021 17332 ft 326 kts 226°
2026-05-07 20:52 41.77870 3.19836 17149 ft 326 kts 226°
2026-05-07 20:52 41.76296 3.17668 16963 ft 325 kts 226°
2026-05-07 20:52 41.74721 3.15499 16805 ft 325 kts 226°
2026-05-07 20:53 41.73150 3.13333 16678 ft 324 kts 226°
2026-05-07 20:53 41.71578 3.11165 16555 ft 322 kts 226°
2026-05-07 20:53 41.70017 3.09019 16424 ft 322 kts 226°
2026-05-07 20:53 41.68459 3.06881 16296 ft 321 kts 226°
2026-05-07 20:54 41.66899 3.04740 16164 ft 321 kts 226°
2026-05-07 20:54 41.65254 3.02783 16024 ft 315 kts 214°
2026-05-07 20:54 41.63332 3.01404 15848 ft 313 kts 205°
2026-05-07 20:54 41.61346 3.00176 15376 ft 317 kts 205°
2026-05-07 20:55 41.59340 2.98937 14938 ft 318 kts 205°
2026-05-07 20:55 41.57358 2.97714 14571 ft 318 kts 205°
2026-05-07 20:55 41.55329 2.96461 14181 ft 318 kts 205°
2026-05-07 20:55 41.53325 2.95220 13825 ft 317 kts 205°
2026-05-07 20:56 41.51357 2.94002 13500 ft 314 kts 205°
2026-05-07 20:56 41.49382 2.92782 13177 ft 311 kts 205°
2026-05-07 20:56 41.47432 2.91580 12852 ft 308 kts 205°
2026-05-07 20:56 41.45494 2.90387 12557 ft 305 kts 205°
2026-05-07 20:57 41.43574 2.89205 12247 ft 303 kts 205°
2026-05-07 20:57 41.41667 2.88028 11931 ft 301 kts 205°
2026-05-07 20:57 41.39911 2.86553 11632 ft 299 kts 221°
2026-05-07 20:57 41.38465 2.84586 11329 ft 297 kts 227°
2026-05-07 20:58 41.37056 2.82579 11028 ft 296 kts 226°
2026-05-07 20:58 41.35651 2.80588 10731 ft 294 kts 226°
2026-05-07 20:58 41.34255 2.78615 10444 ft 292 kts 226°
2026-05-07 20:58 41.32861 2.76645 10161 ft 291 kts 226°
2026-05-07 20:59 41.31476 2.74694 9866 ft 289 kts 226°
2026-05-07 20:59 41.30092 2.72749 9554 ft 292 kts 227°
2026-05-07 20:59 41.28692 2.70784 9234 ft 292 kts 226°
2026-05-07 20:59 41.27368 2.68747 8916 ft 290 kts 238°
2026-05-07 21:00 41.26629 2.66288 8596 ft 287 kts 260°
2026-05-07 21:00 41.26658 2.63651 8308 ft 288 kts 283°
2026-05-07 21:00 41.27389 2.61189 8004 ft 287 kts 297°
2026-05-07 21:00 41.28281 2.58829 7699 ft 286 kts 297°
2026-05-07 21:01 41.29173 2.56463 7403 ft 286 kts 297°
2026-05-07 21:01 41.30056 2.54111 7107 ft 283 kts 297°
2026-05-07 21:01 41.30922 2.51800 6811 ft 274 kts 297°
2026-05-07 21:01 41.31748 2.49593 6516 ft 259 kts 297°
2026-05-07 21:02 41.32537 2.47486 6225 ft 252 kts 297°
2026-05-07 21:02 41.33308 2.45420 5920 ft 248 kts 296°
2026-05-07 21:02 41.34074 2.43368 5591 ft 247 kts 296°
2026-05-07 21:02 41.34832 2.41330 5263 ft 245 kts 296°
2026-05-07 21:03 41.35580 2.39318 4929 ft 239 kts 296°
2026-05-07 21:03 41.36304 2.37371 4602 ft 232 kts 296°
2026-05-07 21:03 41.37016 2.35464 4238 ft 227 kts 296°
2026-05-07 21:03 41.37599 2.33540 3776 ft 225 kts 280°
2026-05-07 21:04 41.37625 2.31486 3428 ft 220 kts 258°
2026-05-07 21:04 41.37126 2.29613 3141 ft 212 kts 244°
2026-05-07 21:04 41.36522 2.27840 2861 ft 207 kts 245°
2026-05-07 21:04 41.35944 2.26137 2607 ft 196 kts 245°
2026-05-07 21:05 41.35396 2.24525 2339 ft 187 kts 245°
2026-05-07 21:05 41.34874 2.22990 2096 ft 177 kts 245°
2026-05-07 21:05 41.34387 2.21559 1885 ft 166 kts 245°
2026-05-07 21:05 41.33932 2.20223 1655 ft 153 kts 245°
2026-05-07 21:06 41.33501 2.18958 1448 ft 148 kts 245°
2026-05-07 21:06 41.33082 2.17728 1252 ft 146 kts 245°
2026-05-07 21:06 41.32663 2.16502 1059 ft 145 kts 245°
2026-05-07 21:06 41.32243 2.15281 844 ft 144 kts 245°
2026-05-07 21:07 41.31839 2.14065 691 ft 143 kts 246°
2026-05-07 21:07 41.31435 2.12865 480 ft 141 kts 244°
2026-05-07 21:07 41.31027 2.11690 277 ft 140 kts 244°
2026-05-07 21:07 41.30632 2.10528 112 ft 136 kts 244°
2026-05-07 21:08 41.30251 2.09411 25 ft 128 kts 245°
2026-05-07 21:08 41.29907 2.08434 21 ft 97 kts 245°
2026-05-07 21:08 41.29717 2.07881 18 ft 40 kts 245°
2026-05-07 21:08 41.29605 2.07557 21 ft 38 kts 245°
2026-05-07 21:09 41.29507 2.07274 19 ft 18 kts 247°
2026-05-07 21:09 41.29459 2.07190 18 ft 10 kts 198°
2026-05-07 21:09 41.29399 2.07208 20 ft 8 kts 155°
2026-05-07 21:09 41.29386 2.07216 19 ft 0 kts 155°
2026-05-07 21:11 41.29335 2.07289 18 ft 7 kts 99°
2026-05-07 21:12 41.29315 2.07346 20 ft 6 kts 138°
2026-05-07 21:12 41.29287 2.07367 18 ft 2 kts 154°
2026-05-07 21:12 41.29284 2.07369 18 ft 2 kts 154°
2026-05-07 21:12 41.29249 2.07379 19 ft 7 kts 182°
2026-05-07 21:13 41.29212 2.07364 18 ft 4 kts 185°
2026-05-07 21:13 41.29202 2.07365 18 ft 0 kts 176°
2026-05-07 21:13 41.29189 2.07367 18 ft 5 kts 175°
2026-05-07 21:13 41.29171 2.07370 18 ft 0 kts 171°
2026-05-07 21:14 41.29160 2.07373 21 ft 4 kts 166°
2026-05-07 21:14 41.29148 2.07377 19 ft 0 kts 165°
2026-05-07 21:14 41.29147 2.07378 19 ft 0 kts 164°
2026-05-07 21:14 41.29144 2.07379 18 ft 0 kts 163°
2026-05-07 21:15 41.29143 2.07379 18 ft 0 kts 163°